When you browse on this site, cookies collect data to enhance your experience and personalize the content and advertising you see.
Visit our Privacy Policy to learn more. By continuing to use the site, you agree to this use of cookies and data.
  • In Romania
  • List of Countries
  • For 7 days
  • Water Temperature
  • Weather Map
  • Weather Widgets
  • user-avatar
    Login

    Hourly Weather Pathiu

    Today, 6 April, Monday

    Time Temperature Precipitation Wind Pressure Humidity
    00:00 +26°C° 0 mm 1 mps 758 mmHg 89%
    01:00 +26°C° 0 mm 1 mps 758 mmHg 90%
    02:00 +26°C° 0 mm 1 mps 758 mmHg 92%
    03:00 +26°C° 0 mm 1 mps 757 mmHg 93%
    04:00 +25°C° 0 mm 1 mps 756 mmHg 94%
    05:00 +26°C° 0 mm 1 mps 757 mmHg 92%
    06:00 +26°C° 0 mm 1 mps 757 mmHg 90%
    07:00 +27°C° 0 mm 1 mps 758 mmHg 84%
    08:00 +30°C° 0 mm 2 mps 758 mmHg 71%
    09:00 +32°C° 0 mm 2 mps 758 mmHg 59%
    10:00 +36°C° 0 mm 3 mps 758 mmHg 46%
    11:00 +37°C° 0 mm 3 mps 758 mmHg 43%
    12:00 +38°C° 0 mm 4 mps 758 mmHg 39%
    13:00 +40°C° 0 mm 4 mps 757 mmHg 36%
    14:00 +38°C° 0 mm 4 mps 757 mmHg 37%
    15:00 +38°C° 0 mm 3 mps 756 mmHg 37%
    16:00 +37°C° 0 mm 3 mps 755 mmHg 38%
    17:00 +35°C° 0 mm 3 mps 755 mmHg 49%
    18:00 +31°C° 0 mm 2 mps 756 mmHg 60%
    19:00 +28°C° 0 mm 2 mps 756 mmHg 71%
    20:00 +27°C° 0 mm 1 mps 756 mmHg 76%
    21:00 +27°C° 0 mm 1 mps 757 mmHg 81%
    22:00 +26°C° 0 mm 1 mps 758 mmHg 86%
    23:00 +23°C° 0 mm 0 mps 758 mmHg 87%

    Tomorrow, 7 April, Tuesday

    Time Temperature Precipitation Wind Pressure Humidity
    00:00 +23°C° 0 mm 0 mps 758 mmHg 89%
    01:00 +23°C° 0 mm 0 mps 757 mmHg 90%
    02:00 +23°C° 0 mm 0 mps 757 mmHg 90%
    03:00 +25°C° 0 mm 1 mps 757 mmHg 91%
    04:00 +25°C° 0 mm 1 mps 756 mmHg 91%
    05:00 +25°C° 0 mm 1 mps 756 mmHg 89%
    06:00 +26°C° 0 mm 1 mps 757 mmHg 86%
    07:00 +26°C° 0 mm 1 mps 757 mmHg 83%
    08:00 +29°C° 0 mm 1 mps 758 mmHg 69%
    09:00 +33°C° 0 mm 1 mps 758 mmHg 56%
    10:00 +36°C° 0 mm 1 mps 758 mmHg 42%
    11:00 +38°C° 0 mm 2 mps 758 mmHg 38%
    12:00 +39°C° 0 mm 2 mps 757 mmHg 34%
    13:00 +40°C° 0 mm 3 mps 756 mmHg 30%
    14:00 +39°C° 0 mm 3 mps 756 mmHg 32%
    15:00 +39°C° 0 mm 3 mps 755 mmHg 33%
    16:00 +38°C° 0 mm 4 mps 754 mmHg 34%
    17:00 +35°C° 0 mm 3 mps 755 mmHg 47%
    18:00 +31°C° 0 mm 3 mps 755 mmHg 60%
    19:00 +28°C° 0 mm 2 mps 755 mmHg 72%
    20:00 +27°C° 0 mm 1 mps 756 mmHg 77%
    21:00 +27°C° 0 mm 1 mps 757 mmHg 81%
    22:00 +24°C° 0 mm 0 mps 757 mmHg 86%
    23:00 +24°C° 0 mm 0 mps 757 mmHg 88%

    Day after tomorrow, 8 April, Wednesday

    Time Temperature Precipitation Wind Pressure Humidity
    00:00 +23°C° 0 mm 0 mps 757 mmHg 89%
    01:00 +25°C° 0 mm 1 mps 756 mmHg 91%
    02:00 +25°C° 0 mm 1 mps 756 mmHg 92%
    03:00 +25°C° 0 mm 1 mps 756 mmHg 93%
    04:00 +25°C° 0 mm 1 mps 756 mmHg 94%
    05:00 +25°C° 0 mm 1 mps 756 mmHg 91%
    06:00 +26°C° 0 mm 1 mps 757 mmHg 88%
    07:00 +27°C° 0 mm 1 mps 757 mmHg 85%
    08:00 +30°C° 0 mm 1 mps 758 mmHg 73%
    09:00 +34°C° 0 mm 2 mps 758 mmHg 60%
    10:00 +37°C° 0 mm 2 mps 758 mmHg 47%
    11:00 +38°C° 0 mm 2 mps 758 mmHg 42%
    12:00 +39°C° 0 mm 3 mps 757 mmHg 37%
    13:00 +41°C° 0 mm 4 mps 757 mmHg 32%
    14:00 +40°C° 0 mm 4 mps 756 mmHg 33%
    15:00 +40°C° 0 mm 4 mps 755 mmHg 35%
    16:00 +38°C° 0 mm 4 mps 755 mmHg 36%
    17:00 +35°C° 0 mm 3 mps 755 mmHg 48%
    18:00 +32°C° 0 mm 2 mps 756 mmHg 61%
    19:00 +29°C° 0 mm 1 mps 756 mmHg 73%
    20:00 +28°C° 0 mm 1 mps 757 mmHg 78%
    21:00 +27°C° 0 mm 1 mps 757 mmHg 83%
    22:00 +25°C° 0 mm 0 mps 757 mmHg 87%
    23:00 +24°C° 0 mm 0 mps 757 mmHg 89%

    9 April, Thursday

    Time Temperature Precipitation Wind Pressure Humidity
    00:00 +24°C° 0 mm 0 mps 757 mmHg 91%
    01:00 +24°C° 0 mm 0 mps 757 mmHg 93%
    02:00 +24°C° 0 mm 0 mps 757 mmHg 93%
    03:00 +25°C° 0 mm 1 mps 756 mmHg 94%
    04:00 +25°C° 0 mm 1 mps 756 mmHg 94%
    05:00 +26°C° 0 mm 1 mps 757 mmHg 91%
    06:00 +25°C° 0 mm 0 mps 757 mmHg 89%
    07:00 +25°C° 0 mm 0 mps 758 mmHg 86%
    08:00 +30°C° 0 mm 1 mps 758 mmHg 74%
    09:00 +34°C° 0 mm 2 mps 758 mmHg 62%
    10:00 +36°C° 0 mm 2 mps 759 mmHg 50%
    11:00 +37°C° 0 mm 3 mps 758 mmHg 46%
    12:00 +38°C° 0 mm 3 mps 758 mmHg 43%
    13:00 +40°C° 0 mm 4 mps 757 mmHg 39%
    14:00 +38°C° 0 mm 4 mps 756 mmHg 40%
    15:00 +38°C° 0 mm 4 mps 756 mmHg 41%
    16:00 +37°C° 0 mm 4 mps 755 mmHg 43%
    17:00 +35°C° 0 mm 3 mps 756 mmHg 52%
    18:00 +33°C° 0 mm 3 mps 756 mmHg 62%
    19:00 +30°C° 0 mm 2 mps 756 mmHg 71%
    20:00 +29°C° 0.2 mm 2 mps 757 mmHg 77%
    21:00 +28°C° 0.2 mm 2 mps 758 mmHg 83%
    22:00 +27°C° 0.2 mm 1 mps 758 mmHg 90%
    23:00 +27°C° 0.4 mm 1 mps 758 mmHg 91%

    10 April, Friday

    Time Temperature Precipitation Wind Pressure Humidity
    00:00 +26°C° 0.4 mm 1 mps 758 mmHg 93%
    01:00 +24°C° 0.4 mm 0 mps 758 mmHg 94%
    02:00 +26°C° 0.1 mm 1 mps 757 mmHg 95%
    03:00 +26°C° 0.1 mm 1 mps 757 mmHg 95%
    04:00 +26°C° 0.1 mm 1 mps 757 mmHg 95%
    05:00 +26°C° 0.1 mm 1 mps 757 mmHg 93%
    06:00 +27°C° 0.1 mm 1 mps 757 mmHg 90%
    07:00 +27°C° 0.1 mm 1 mps 757 mmHg 88%
    08:00 +30°C° 0 mm 2 mps 758 mmHg 74%
    09:00 +34°C° 0 mm 2 mps 759 mmHg 60%
    10:00 +37°C° 0 mm 3 mps 759 mmHg 46%
    11:00 +37°C° 0 mm 3 mps 758 mmHg 45%
    12:00 +38°C° 0 mm 4 mps 758 mmHg 43%
    13:00 +40°C° 0 mm 4 mps 757 mmHg 41%
    14:00 +38°C° 0 mm 4 mps 757 mmHg 43%
    15:00 +37°C° 0 mm 4 mps 757 mmHg 45%
    16:00 +36°C° 0 mm 4 mps 756 mmHg 47%
    17:00 +34°C° 0 mm 4 mps 756 mmHg 55%
    18:00 +31°C° 0 mm 3 mps 757 mmHg 64%
    19:00 +29°C° 0 mm 2 mps 757 mmHg 72%
    20:00 +29°C° 0.1 mm 2 mps 758 mmHg 77%
    21:00 +28°C° 0.1 mm 2 mps 758 mmHg 83%
    22:00 +27°C° 0.1 mm 2 mps 759 mmHg 88%
    23:00 +27°C° 0 mm 1 mps 759 mmHg 89%

    11 April, Saturday

    Time Temperature Precipitation Wind Pressure Humidity
    00:00 +26°C° 0 mm 1 mps 758 mmHg 91%
    01:00 +26°C° 0 mm 1 mps 758 mmHg 92%
    02:00 +26°C° 0 mm 1 mps 758 mmHg 92%
    03:00 +26°C° 0 mm 1 mps 757 mmHg 91%
    04:00 +25°C° 0 mm 1 mps 757 mmHg 91%
    05:00 +26°C° 0 mm 1 mps 757 mmHg 88%
    06:00 +26°C° 0 mm 1 mps 758 mmHg 85%
    07:00 +27°C° 0 mm 1 mps 758 mmHg 83%
    08:00 +30°C° 0 mm 2 mps 758 mmHg 70%
    09:00 +32°C° 0 mm 2 mps 758 mmHg 58%
    10:00 +36°C° 0 mm 3 mps 759 mmHg 45%
    11:00 +37°C° 0 mm 3 mps 758 mmHg 43%
    12:00 +38°C° 0 mm 4 mps 757 mmHg 42%
    13:00 +38°C° 0 mm 4 mps 757 mmHg 40%
    14:00 +38°C° 0 mm 4 mps 756 mmHg 41%
    15:00 +37°C° 0 mm 4 mps 756 mmHg 43%
    16:00 +37°C° 0 mm 3 mps 755 mmHg 45%
    17:00 +35°C° 0 mm 3 mps 756 mmHg 54%
    18:00 +33°C° 0 mm 3 mps 756 mmHg 64%
    19:00 +30°C° 0 mm 2 mps 756 mmHg 73%
    20:00 +29°C° 0 mm 2 mps 757 mmHg 78%
    21:00 +28°C° 0 mm 2 mps 757 mmHg 83%
    22:00 +27°C° 0 mm 1 mps 758 mmHg 88%
    23:00 +27°C° 0 mm 1 mps 757 mmHg 89%
    Show more